[[{"header":{"parameterUnit":"m.s-1","parameterCategory":1,"la1":30.2991,"la2":30.254,"lo1":-89.0895,"lo2":-89.0444,"dy":0.0017,"dx":0.0017,"nx":28,"ny":28,"refTime":"2025-04-10T21:00:00:Z","depth":0,"parameterNumber":2,"parameterNumberName":"U-component_of_WINDS"},"data":[0,0,0,0,0,0,0,0,0,0,0,0,0,0,0,0,0,0,0,0,0,0,0,0,0,0,0,0,0,0,0,0,0,0,0,0,0,0,0,0,0,0,0,0,0,0,0,0,0,0,0,0,0,0,0,0,0,0,1.9213,1.9214,0,1.9308,1.9309,1.931,1.932,1.9319,1.9318,1.9317,1.942,1.9424,1.9427,0,0,0,0,0,0,0,0,0,0,0,0,0,1.9048,1.9051,1.9213,1.9214,1.9216,1.9308,1.9309,1.931,1.932,1.9318,1.9317,1.9316,1.9419,1.9423,1.9428,0,0,0,0,0,0,0,0,0,0,0,0,0,1.9129,1.9052,1.9213,1.9231,1.9234,1.9307,1.9309,1.9311,1.932,1.9318,1.9317,1.9316,1.9418,1.9423,1.9428,1.9492,0,0,1.9445,1.9448,0,0,0,0,0,0,0,0,1.9124,1.9135,1.9227,1.923,1.9233,1.93,1.9289,1.9372,1.932,1.9287,1.9317,1.9315,1.9382,1.939,1.9412,1.9497,1.9502,1.9446,1.9449,1.9451,1.9453,0,0,0,0,0,0,0,1.9119,1.9131,1.9251,1.9229,1.9232,1.9237,1.9247,1.9304,1.9342,1.929,1.9291,1.9302,1.9383,1.9406,1.9414,1.9503,1.9446,1.9451,1.9454,1.9456,1.9648,1.965,0,0,0,0,0,0,1.9109,1.9126,1.9248,1.9254,1.9174,1.9241,1.9252,1.928,1.9341,1.9349,1.9303,1.9302,1.9397,1.9408,1.9418,1.9498,1.9451,1.9457,1.946,1.9646,1.9648,1.965,0,0,0,0,0,0,1.9105,1.9119,1.9244,1.919,1.9206,1.9245,1.9277,1.9283,1.9306,1.9351,1.9358,1.9319,1.9397,1.941,1.9474,1.9501,1.9459,1.9464,1.9644,1.9647,1.9649,1.9657,0,0,0,0,0,0,1.91,1.9118,1.9141,1.919,1.9209,1.9296,1.9279,1.9286,1.9314,1.9314,1.9368,1.9376,1.9397,1.9465,1.9479,1.9508,1.9468,1.9642,1.9645,1.9648,1.9655,1.966,1.9664,0,0,0,0,0,1.9094,1.9141,1.9142,1.9157,1.9238,1.9298,1.9309,1.933,1.9316,1.9341,1.9371,1.9374,1.9496,1.9472,1.9487,1.9519,1.964,1.9644,1.9648,1.9653,1.9659,1.9664,0,0,0,0,0,0,1.9096,1.9148,1.915,1.9213,1.9251,1.9299,1.9331,1.9336,1.9379,1.9377,1.9404,1.9416,1.9479,1.9505,1.9477,1.9585,1.9567,1.9574,1.9565,1.9572,1.9576,1.9569,1.9473,0,0,0,0,0,1.9103,1.9144,1.9188,1.924,1.9259,1.9291,1.9318,1.9331,1.9372,1.9389,1.9423,1.9464,1.9512,1.9543,1.959,1.9658,1.9672,1.9688,1.9693,1.9696,1.9703,1.9743,1.9751,1.9663,1.9663,1.9663,0,0,1.9119,1.9153,1.9178,1.9241,1.9272,1.9317,1.9305,1.9353,1.9387,1.9397,1.9458,1.9485,1.9533,1.96,1.9631,1.9624,1.973,1.9701,1.9704,1.9709,1.9748,1.9756,1.9763,1.9666,1.9666,1.9665,0,0,1.9172,1.92,1.9247,1.9278,1.9324,1.9345,1.9356,1.9404,1.9422,1.9483,1.9492,1.9534,1.9616,1.965,1.9678,1.9744,1.975,1.9759,1.9784,1.9823,1.983,1.9836,1.9861,1.987,1.9765,1.9765,1.9765,0,1.9187,1.9253,1.9271,1.9319,1.9347,1.9356,1.9405,1.9435,1.9494,1.9515,1.9505,1.9608,1.9641,1.9716,1.9732,1.9755,1.977,1.9753,1.9827,1.9834,1.984,1.9864,1.9873,1.9766,1.9766,1.9766,1.9766,0,1.927,1.9315,1.9348,1.9403,1.9435,1.9483,1.9512,1.9543,1.9553,1.9576,1.964,1.968,1.9735,1.9754,1.9765,1.9832,1.9826,1.9821,1.9804,1.9849,1.9872,1.9881,1.9767,1.9767,1.9767,1.9766,0,0,1.9327,1.9391,1.9403,1.9428,1.948,1.9516,1.9566,1.9617,1.9644,1.9685,1.9729,1.9797,1.9793,1.9825,1.9841,1.9874,1.9926,1.9866,1.9868,1.9877,2.0004,2.0008,2.0018,1.9929,1.9931,1.9933,2.0,0,1.9386,1.9472,1.949,1.9565,1.9608,1.9617,1.9661,1.9698,1.9721,1.9763,1.979,1.9838,1.9829,1.9848,1.9882,1.9912,1.9952,1.9908,1.9973,1.9975,1.9961,2.003,2.0034,2.0096,2.0009,2.0011,2.0012,0,1.9467,1.9508,1.9586,1.9632,1.9651,1.969,1.9739,1.9778,1.9822,1.9836,1.9872,1.9884,1.9938,1.9917,1.9993,1.9963,1.999,2.001,2.0013,2.0021,1.9997,2.0041,2.0116,2.0126,2.0026,2.0025,2.0024,0,1.9503,1.9577,1.9634,1.9655,1.971,1.9737,1.9762,1.9803,1.9834,1.9878,1.9898,1.9948,1.9977,2.0016,2.0042,2.0025,2.0117,2.0098,2.0133,2.0132,2.0153,2.0152,2.0235,2.0169,2.0169,2.0168,2.0168,0,1.9568,1.9616,1.9651,1.9686,1.9741,1.9762,1.9817,1.9842,1.9879,1.9921,1.9932,1.9972,2.0003,2.0048,2.0068,2.0129,2.0142,2.0157,2.0162,2.0157,2.0155,2.0176,2.0173,2.0171,2.017,2.017,2.0169,0,1.9617,1.9642,1.9705,1.9751,1.9764,1.9802,1.9843,1.9879,1.9902,1.9955,1.9969,2.0006,2.0059,2.0088,2.0156,2.017,2.0238,2.0241,2.0223,2.0225,2.0259,2.0255,2.0359,2.0375,2.0297,2.0298,2.0298,0,1.9658,1.9695,1.9744,1.9772,1.9797,1.9841,1.9872,1.9895,1.9927,1.9979,2.0009,2.0062,2.0106,2.0191,2.0226,2.0277,2.0282,2.0315,2.029,2.0284,2.0284,2.0282,2.0287,2.032,2.032,2.0321,2.0321,0,1.9728,1.9738,1.978,1.9827,1.9862,1.9901,1.9939,1.9962,1.9992,2.0028,2.008,2.0114,2.0182,2.0236,2.029,2.0318,2.0326,2.0329,2.034,2.0335,2.0324,2.0332,2.0236,2.0327,2.0326,2.0326,2.0325,2.0325,1.9776,1.9809,1.9849,1.9896,1.9927,1.9962,1.9998,2.0025,2.0069,2.0124,2.0136,2.0192,2.0237,2.031,2.034,2.0386,2.038,2.0396,2.04,2.0404,2.0406,2.0315,2.0396,2.0396,2.0396,2.0396,2.0396,0,1.9847,1.9873,1.9916,1.9968,2.0006,2.0006,2.0049,2.0081,2.013,2.0169,2.0211,2.0273,2.0325,2.0363,2.0417,2.0447,2.0452,2.046,2.0459,2.0466,2.0407,2.0393,2.0456,2.0456,2.0456,2.0456,2.0455,2.0455,1.9889,1.9946,1.9961,2.0035,2.0061,2.0115,2.0139,2.0173,2.0204,2.0272,2.0314,2.0338,2.0377,2.0434,2.0482,2.0492,2.0513,2.0521,2.0532,2.0476,2.047,2.0464,2.0451,2.0525,2.0525,2.0587,2.0587,2.0588]},{"header":{"parameterUnit":"m.s-1","parameterCategory":1,"la1":30.2991,"la2":30.254,"lo1":-89.0895,"lo2":-89.0444,"dy":0.0017,"dx":0.0017,"nx":28,"ny":28,"refTime":"2025-04-10T21:00:00:Z","depth":0,"parameterNumber":3,"parameterNumberName":"V-component_of_WINDS"},"data":[0,0,0,0,0,0,0,0,0,0,0,0,0,0,0,0,0,0,0,0,0,0,0,0,0,0,0,0,0,0,0,0,0,0,0,0,0,0,0,0,0,0,0,0,0,0,0,0,0,0,0,0,0,0,0,0,0,0,1.6842,1.6843,0,1.6874,1.6874,1.6874,1.6897,1.6897,1.6898,1.6898,1.6926,1.6926,1.6927,0,0,0,0,0,0,0,0,0,0,0,0,0,1.6796,1.6797,1.6842,1.6843,1.6843,1.6874,1.6874,1.6874,1.6897,1.6897,1.6898,1.6898,1.6926,1.6926,1.6927,0,0,0,0,0,0,0,0,0,0,0,0,0,1.682,1.6797,1.6842,1.6858,1.686,1.6873,1.6874,1.6875,1.6897,1.6897,1.6898,1.6898,1.6926,1.6926,1.6927,1.6926,0,0,1.693,1.693,0,0,0,0,0,0,0,0,1.6819,1.6822,1.6855,1.6857,1.6859,1.6882,1.6868,1.6892,1.6897,1.6883,1.6898,1.6898,1.6911,1.6913,1.6918,1.6928,1.6929,1.693,1.693,1.6931,1.6931,0,0,0,0,0,0,0,1.6817,1.6821,1.6855,1.6856,1.6858,1.6862,1.6866,1.6873,1.6895,1.6884,1.6886,1.6889,1.6912,1.6917,1.6919,1.6929,1.693,1.6931,1.6931,1.6931,1.6936,1.6936,0,0,0,0,0,0,1.6814,1.6819,1.6854,1.6855,1.684,1.6862,1.6867,1.6874,1.6895,1.6898,1.6889,1.689,1.6915,1.6918,1.692,1.6918,1.6931,1.6932,1.6932,1.6936,1.6936,1.6935,0,0,0,0,0,0,1.6813,1.6817,1.6852,1.6838,1.6843,1.6863,1.6871,1.6875,1.688,1.6898,1.6902,1.6891,1.6916,1.6919,1.6924,1.6919,1.6932,1.6933,1.6937,1.6936,1.6936,1.6916,0,0,0,0,0,0,1.6811,1.6816,1.6818,1.6838,1.6843,1.6858,1.6871,1.6875,1.6882,1.6884,1.6901,1.6904,1.6916,1.6923,1.6925,1.6921,1.6933,1.6937,1.6936,1.6936,1.6917,1.6914,1.6912,0,0,0,0,0,1.681,1.6811,1.6818,1.6822,1.6846,1.6858,1.6861,1.6876,1.6882,1.6882,1.6893,1.6904,1.692,1.6923,1.6926,1.6922,1.6938,1.6937,1.6936,1.6918,1.6915,1.6912,0,0,0,0,0,0,1.6789,1.6814,1.6822,1.683,1.6841,1.6861,1.6863,1.6873,1.6882,1.6883,1.69,1.6904,1.6906,1.6915,1.6918,1.692,1.693,1.6929,1.6915,1.6912,1.691,1.6908,1.6934,0,0,0,0,0,1.6786,1.6795,1.6815,1.682,1.6825,1.6843,1.6849,1.6859,1.6871,1.6876,1.6888,1.6898,1.6905,1.6909,1.6917,1.6918,1.692,1.6916,1.6914,1.6912,1.6911,1.6909,1.6907,1.6933,1.6933,1.6933,0,0,1.6779,1.6793,1.6798,1.6816,1.6826,1.6833,1.6847,1.6854,1.6858,1.6877,1.6882,1.6891,1.6903,1.6905,1.6907,1.6912,1.6905,1.6911,1.6909,1.691,1.6908,1.6906,1.6903,1.6932,1.6932,1.6932,0,0,1.6769,1.6782,1.6786,1.6795,1.6811,1.6822,1.6822,1.684,1.6847,1.6853,1.6866,1.687,1.6883,1.689,1.6895,1.6884,1.6893,1.6886,1.6874,1.6872,1.687,1.6868,1.6862,1.686,1.6885,1.6885,1.6885,0,1.6758,1.677,1.6787,1.6792,1.6799,1.6815,1.6818,1.6826,1.6843,1.6846,1.6851,1.6865,1.6875,1.6878,1.6875,1.6879,1.6879,1.6884,1.6869,1.6868,1.6866,1.686,1.6858,1.6884,1.6884,1.6884,1.6884,0,1.6754,1.6762,1.6763,1.6779,1.6786,1.679,1.6805,1.6809,1.6818,1.6827,1.6831,1.6843,1.6852,1.6853,1.6862,1.6856,1.6859,1.6867,1.6876,1.6863,1.6857,1.6855,1.6883,1.6883,1.6883,1.6884,0,0,1.6735,1.6757,1.6758,1.6763,1.678,1.6785,1.6788,1.6798,1.68,1.681,1.6811,1.682,1.6826,1.6832,1.6842,1.684,1.6827,1.6848,1.6848,1.6842,1.6818,1.6811,1.6808,1.6833,1.6833,1.6832,1.6816,0,1.6727,1.6735,1.6749,1.6752,1.6758,1.6772,1.6774,1.6783,1.6791,1.6795,1.6804,1.6809,1.6818,1.6821,1.682,1.6829,1.6822,1.683,1.6832,1.6832,1.6828,1.6806,1.6799,1.6784,1.6814,1.6814,1.6814,0,1.6719,1.6728,1.6732,1.6745,1.6747,1.675,1.6757,1.6762,1.6771,1.6776,1.6781,1.6791,1.6792,1.6801,1.6802,1.6807,1.6808,1.6812,1.6812,1.6812,1.6822,1.6804,1.6779,1.6776,1.6811,1.6811,1.6812,0,1.6702,1.6715,1.6718,1.6723,1.6738,1.6739,1.6745,1.6754,1.6758,1.6764,1.6766,1.6772,1.6774,1.6777,1.6787,1.6793,1.6785,1.6796,1.6788,1.6787,1.6785,1.6785,1.6759,1.6788,1.6788,1.6788,1.6788,0,1.6691,1.6693,1.671,1.6712,1.6713,1.6726,1.6726,1.6733,1.674,1.6742,1.6754,1.6755,1.6768,1.677,1.6777,1.6775,1.6776,1.6779,1.6781,1.6777,1.6777,1.6778,1.6778,1.6788,1.6788,1.6788,1.6788,0,1.6673,1.6685,1.6689,1.6703,1.6706,1.6706,1.6716,1.6717,1.6725,1.6726,1.6727,1.6739,1.6741,1.6751,1.6755,1.676,1.6754,1.6758,1.6751,1.6752,1.6742,1.6742,1.6715,1.6711,1.6744,1.6744,1.6744,0,1.6665,1.6667,1.668,1.6682,1.6687,1.6691,1.6694,1.6706,1.6709,1.6717,1.6716,1.6718,1.6722,1.6723,1.6731,1.6733,1.6737,1.6727,1.6737,1.6733,1.6734,1.6733,1.6732,1.6725,1.6724,1.6724,1.6724,0,1.6649,1.6654,1.666,1.6665,1.6668,1.6674,1.6679,1.668,1.6693,1.6694,1.6696,1.6698,1.6702,1.6703,1.6706,1.671,1.6718,1.672,1.6718,1.6714,1.6709,1.6709,1.6743,1.6721,1.6721,1.6721,1.6721,1.6722,1.6635,1.6636,1.6644,1.6648,1.6653,1.6657,1.6657,1.6664,1.6667,1.6671,1.6677,1.6677,1.6682,1.6687,1.669,1.6689,1.6694,1.6691,1.669,1.6689,1.6686,1.671,1.6689,1.669,1.669,1.669,1.669,0,1.6618,1.6624,1.6627,1.6634,1.6636,1.6643,1.6648,1.6649,1.665,1.6654,1.6656,1.6656,1.6657,1.6663,1.6664,1.6661,1.6664,1.6661,1.6661,1.6661,1.6683,1.6684,1.6658,1.6658,1.6658,1.6658,1.6658,1.6658,1.661,1.661,1.6615,1.6616,1.6621,1.6622,1.6624,1.6626,1.663,1.663,1.663,1.6634,1.6638,1.6639,1.6638,1.664,1.6639,1.6633,1.6636,1.6657,1.666,1.6662,1.6663,1.6634,1.6634,1.6613,1.6613,1.6613]}]]